Hourly Weather Göle

Today, 15 May, Saturday

Time Temperature Precipitation Wind Pressure Humidity
00:00 +10°C° 0 mm 2 mps 597 mmHg 65%
01:00 +10°C° 0 mm 2 mps 597 mmHg 65%
02:00 +11°C° 0 mm 1 mps 597 mmHg 65%
03:00 +11°C° 0 mm 1 mps 597 mmHg 66%
04:00 +11°C° 0 mm 1 mps 597 mmHg 66%
05:00 +11°C° 0 mm 1 mps 597 mmHg 66%
06:00 +12°C° 0 mm 1 mps 597 mmHg 67%
07:00 +14°C° 0 mm 1 mps 598 mmHg 60%
08:00 +16°C° 0 mm 1 mps 598 mmHg 53%
09:00 +18°C° 0 mm 2 mps 599 mmHg 47%
10:00 +19°C° 0 mm 2 mps 599 mmHg 44%
11:00 +20°C° 0 mm 2 mps 599 mmHg 42%
12:00 +20°C° 0 mm 2 mps 599 mmHg 39%
13:00 +19°C° 0.1 mm 2 mps 599 mmHg 45%
14:00 +18°C° 0.1 mm 2 mps 598 mmHg 50%
15:00 +17°C° 0.1 mm 2 mps 597 mmHg 55%
16:00 +15°C° 1.9 mm 2 mps 597 mmHg 65%
17:00 +13°C° 1.9 mm 2 mps 597 mmHg 74%
18:00 +11°C° 1.9 mm 1 mps 597 mmHg 83%
19:00 +11°C° 0.7 mm 1 mps 597 mmHg 84%
20:00 +10°C° 0.7 mm 1 mps 597 mmHg 86%
21:00 +10°C° 0.7 mm 1 mps 597 mmHg 88%
22:00 +9°C° 0.2 mm 1 mps 596 mmHg 88%
23:00 +9°C° 0.2 mm 1 mps 596 mmHg 87%

Tomorrow, 16 May, Sunday

Time Temperature Precipitation Wind Pressure Humidity
00:00 +9°C° 0.2 mm 1 mps 595 mmHg 87%
01:00 +9°C° 0 mm 1 mps 595 mmHg 86%
02:00 +9°C° 0 mm 1 mps 595 mmHg 85%
03:00 +9°C° 0 mm 1 mps 594 mmHg 85%
04:00 +9°C° 0 mm 1 mps 595 mmHg 84%
05:00 +9°C° 0 mm 1 mps 595 mmHg 84%
06:00 +9°C° 0 mm 2 mps 595 mmHg 83%
07:00 +12°C° 0 mm 2 mps 596 mmHg 75%
08:00 +14°C° 0 mm 2 mps 596 mmHg 67%
09:00 +16°C° 0 mm 3 mps 597 mmHg 59%
10:00 +18°C° 0.1 mm 3 mps 597 mmHg 54%
11:00 +19°C° 0.1 mm 4 mps 597 mmHg 48%
12:00 +20°C° 0.1 mm 4 mps 597 mmHg 43%
13:00 +20°C° 0.1 mm 4 mps 597 mmHg 42%
14:00 +20°C° 0.1 mm 5 mps 596 mmHg 42%
15:00 +20°C° 0.1 mm 5 mps 596 mmHg 42%
16:00 +19°C° 0.1 mm 4 mps 595 mmHg 45%
17:00 +18°C° 0.1 mm 3 mps 595 mmHg 49%
18:00 +17°C° 0.1 mm 2 mps 595 mmHg 53%
19:00 +15°C° 0 mm 2 mps 595 mmHg 56%
20:00 +13°C° 0 mm 2 mps 595 mmHg 60%
21:00 +10°C° 0 mm 2 mps 594 mmHg 63%
22:00 +10°C° 0 mm 2 mps 594 mmHg 64%
23:00 +10°C° 0 mm 2 mps 594 mmHg 65%

Day after tomorrow, 17 May, Monday

Time Temperature Precipitation Wind Pressure Humidity
00:00 +9°C° 0 mm 2 mps 594 mmHg 66%
01:00 +9°C° 0 mm 2 mps 594 mmHg 69%
02:00 +8°C° 0 mm 2 mps 594 mmHg 72%
03:00 +8°C° 0 mm 2 mps 593 mmHg 75%
04:00 +8°C° 0 mm 2 mps 594 mmHg 75%
05:00 +9°C° 0 mm 2 mps 594 mmHg 75%
06:00 +9°C° 0 mm 2 mps 594 mmHg 75%
07:00 +12°C° 0 mm 2 mps 595 mmHg 64%
08:00 +14°C° 0 mm 3 mps 595 mmHg 54%
09:00 +17°C° 0 mm 3 mps 596 mmHg 44%
10:00 +18°C° 0 mm 4 mps 596 mmHg 39%
11:00 +19°C° 0 mm 4 mps 596 mmHg 35%
12:00 +20°C° 0 mm 5 mps 597 mmHg 31%
13:00 +18°C° 0.6 mm 4 mps 596 mmHg 43%
14:00 +14°C° 0.6 mm 3 mps 595 mmHg 55%
15:00 +13°C° 0.6 mm 2 mps 594 mmHg 67%
16:00 +13°C° 0 mm 3 mps 594 mmHg 60%
17:00 +14°C° 0 mm 4 mps 594 mmHg 53%
18:00 +15°C° 0 mm 5 mps 594 mmHg 46%
19:00 +13°C° 0.2 mm 3 mps 594 mmHg 57%
20:00 +10°C° 0.2 mm 2 mps 593 mmHg 68%
21:00 +9°C° 0.2 mm 1 mps 593 mmHg 78%
22:00 +8°C° 0.1 mm 1 mps 593 mmHg 80%
23:00 +7°C° 0.1 mm 0 mps 593 mmHg 83%

18 May, Tuesday

Time Temperature Precipitation Wind Pressure Humidity
00:00 +6°C° 0.1 mm 0 mps 592 mmHg 85%
01:00 +6°C° 0.3 mm 0 mps 592 mmHg 85%
02:00 +6°C° 0.3 mm 0 mps 592 mmHg 85%
03:00 +6°C° 0.3 mm 0 mps 592 mmHg 85%
04:00 +7°C° 0.1 mm 1 mps 592 mmHg 85%
05:00 +7°C° 0.1 mm 1 mps 593 mmHg 86%
06:00 +8°C° 0.1 mm 1 mps 593 mmHg 86%
07:00 +8°C° 0 mm 2 mps 594 mmHg 81%
08:00 +9°C° 0 mm 2 mps 594 mmHg 75%
09:00 +12°C° 0 mm 2 mps 595 mmHg 70%
10:00 +12°C° 0.2 mm 3 mps 596 mmHg 66%
11:00 +13°C° 0.2 mm 3 mps 596 mmHg 61%
12:00 +14°C° 0.2 mm 3 mps 597 mmHg 56%
13:00 +14°C° 0.2 mm 3 mps 597 mmHg 54%
14:00 +14°C° 0.2 mm 4 mps 597 mmHg 52%
15:00 +15°C° 0.2 mm 4 mps 597 mmHg 51%
16:00 +14°C° 0 mm 3 mps 597 mmHg 54%
17:00 +14°C° 0 mm 3 mps 597 mmHg 58%
18:00 +13°C° 0 mm 3 mps 597 mmHg 61%
19:00 +12°C° 0 mm 2 mps 596 mmHg 68%
20:00 +9°C° 0 mm 2 mps 596 mmHg 74%
21:00 +8°C° 0 mm 1 mps 596 mmHg 80%
22:00 +8°C° 0 mm 1 mps 596 mmHg 81%
23:00 +7°C° 0 mm 1 mps 596 mmHg 81%

19 May, Wednesday

Time Temperature Precipitation Wind Pressure Humidity
00:00 +7°C° 0 mm 1 mps 596 mmHg 81%
01:00 +7°C° 0 mm 1 mps 596 mmHg 79%
02:00 +6°C° 0 mm 1 mps 595 mmHg 77%
03:00 +6°C° 0 mm 1 mps 595 mmHg 75%
04:00 +7°C° 0 mm 1 mps 596 mmHg 73%
05:00 +7°C° 0 mm 1 mps 596 mmHg 71%
06:00 +8°C° 0 mm 1 mps 597 mmHg 68%
07:00 +10°C° 0 mm 1 mps 597 mmHg 60%
08:00 +13°C° 0 mm 1 mps 598 mmHg 52%
09:00 +15°C° 0 mm 1 mps 599 mmHg 43%
10:00 +16°C° 0 mm 1 mps 599 mmHg 40%
11:00 +19°C° 0 mm 1 mps 599 mmHg 37%
12:00 +20°C° 0 mm 1 mps 600 mmHg 35%
13:00 +21°C° 0 mm 1 mps 600 mmHg 34%
14:00 +21°C° 0 mm 1 mps 599 mmHg 34%
15:00 +21°C° 0 mm 2 mps 599 mmHg 34%
16:00 +21°C° 0 mm 1 mps 599 mmHg 39%
17:00 +21°C° 0 mm 1 mps 599 mmHg 44%
18:00 +20°C° 0 mm 1 mps 599 mmHg 49%
19:00 +18°C° 0 mm 1 mps 598 mmHg 52%
20:00 +15°C° 0 mm 1 mps 598 mmHg 55%
21:00 +13°C° 0 mm 1 mps 597 mmHg 58%
22:00 +12°C° 0 mm 1 mps 597 mmHg 58%
23:00 +12°C° 0 mm 1 mps 597 mmHg 59%

20 May, Thursday

Time Temperature Precipitation Wind Pressure Humidity
00:00 +11°C° 0 mm 1 mps 597 mmHg 60%
01:00 +11°C° 0 mm 1 mps 597 mmHg 62%
02:00 +11°C° 0 mm 1 mps 596 mmHg 63%
03:00 +10°C° 0 mm 1 mps 596 mmHg 64%
04:00 +11°C° 0 mm 1 mps 596 mmHg 64%
05:00 +11°C° 0 mm 1 mps 597 mmHg 65%
06:00 +12°C° 0 mm 1 mps 597 mmHg 65%
07:00 +14°C° 0 mm 1 mps 598 mmHg 58%
08:00 +18°C° 0 mm 1 mps 598 mmHg 51%
09:00 +20°C° 0 mm 1 mps 599 mmHg 45%
10:00 +21°C° 0 mm 1 mps 599 mmHg 41%
11:00 +21°C° 0 mm 2 mps 599 mmHg 37%
12:00 +23°C° 0 mm 2 mps 600 mmHg 34%
13:00 +24°C° 0 mm 2 mps 599 mmHg 33%
14:00 +24°C° 0 mm 2 mps 599 mmHg 32%
15:00 +24°C° 0 mm 2 mps 599 mmHg 32%
16:00 +24°C° 0 mm 2 mps 598 mmHg 37%
17:00 +23°C° 0 mm 2 mps 598 mmHg 43%
18:00 +21°C° 0 mm 2 mps 597 mmHg 49%
19:00 +18°C° 0.3 mm 2 mps 597 mmHg 55%
20:00 +16°C° 0.3 mm 1 mps 597 mmHg 62%
21:00 +14°C° 0.3 mm 1 mps 596 mmHg 68%
22:00 +13°C° 0 mm 1 mps 596 mmHg 69%
23:00 +13°C° 0 mm 1 mps 596 mmHg 69%
Show more